Tracking 29892 objects as of 21-Nov-2024
HD Live streaming from Space Station
objects crossing your sky now

COSMOS 2379

Track COSMOS 2379 now!
COSMOS 2379 is classified as:


NORAD ID: 26892
Int'l Code: 2001-037A
Perigee: 35,765.3 km
Apogee: 35,824.5 km
Inclination: 12.8 °
Period: 1,436.2 minutes
Semi major axis: 42165 km
RCS: 28.2811 m2 (large)
Launch date: August 24, 2001
Source: Commonwealth of Independent States (former USSR) (CIS)
Launch site: TYURATAM MISSILE AND SPACE COMPLEX (TTMTR)

Normally part of a larger constellation.
Your satellite tracking list
Your tracking list is empty




NASA's NSSDC Master Catalog

Two Line Element Set (TLE):
1 26892U 01037A   24325.86942840  .00000055  00000-0  00000+0 0  9994
2 26892  12.7670  18.3048 0007022 210.1943 156.9778  1.00267802 85122
Source of the keplerian elements: AFSPC